Probability
0 0 0 0 0 0 0 0 0 0 0 0 0 0 6 3 0 3 6 6 6 6 6 6 10 23 19 19 23 23 23 16 10 23 26 29 29 23 26 26 23 23 26 26
0 0 0 0 0 0 0 0 0 0 0 0 0 3 3 3 3 3 3 3 3 6 10 10 3 16 26 32 26 19 23 23 26 23 19 23 26 29 32 35 26 29 23 26
0 0 0 0 0 0 0 0 0 0 0 0 0 0 3 3 3 3 3 3 3 10 13 13 10 19 26 32 32 35 32 32 35 32 29 29 26 26 32 29 29 29 26 26
0 0 0 0 0 0 0 0 0 0 0 0 0 0 3 3 3 3 6 10 10 10 13 10 13 16 26 32 35 39 39 35 35 35 32 32 23 26 23 32 32 29 26 23
0 0 0 0 0 0 0 0 0 0 0 0 0 0 3 3 6 6 6 6 13 10 16 16 23 23 29 39 39 39 32 32 35 32 32 29 26 26 26 29 32 26 26 23
0 0 0 0 0 0 0 0 0 0 0 0 0 0 0 3 10 6 6 6 3 13 13 10 19 23 29 35 39 35 32 35 35 32 29 35 29 29 26 29 35 32 19 19
0 0 0 0 0 0 0 0 0 0 0 0 0 0 0 3 10 6 6 3 3 13 10 10 16 23 19 19 29 26 29 26 29 32 26 26 32 29 29 26 26 32 29 29
0 0 0 0 0 0 0 0 0 0 0 0 0 0 0 3 6 3 3 3 3 3 10 10 16 19 16 23 26 23 23 26 32 35 32 32 32 29 29 29 32 35 26 26
0 0 0 0 0 0 0 0 0 0 0 0 0 0 3 3 6 3 3 3 3 3 10 6 10 19 23 23 26 23 23 26 32 35 35 35 39 39 39 35 32 32 32 32
0 0 0 0 0 0 0 0 0 0 0 0 0 0 3 10 6 6 6 6 13 6 6 16 13 16 26 23 26 26 23 29 35 29 32 35 35 39 39 39 35 35 29 29
0 0 0 0 0 0 0 0 0 0 0 0 0 0 3 6 3 3 3 3 6 6 13 16 16 19 19 26 23 26 26 29 29 32 29 29 32 32 39 35 35 39 32 26
0 0 0 0 0 0 0 0 0 0 0 0 0 0 0 3 3 3 6 6 3 6 6 10 19 19 23 16 26 29 29 32 29 32 32 29 29 32 35 32 35 35 32 29
0 0 0 0 0 0 0 0 0 0 0 0 0 0 0 6 10 6 10 6 3 3 6 10 19 16 26 23 19 19 23 29 29 32 26 26 26 26 32 29 32 29 29 29
0 0 0 0 0 0 0 0 0 0 0 0 0 0 3 13 6 10 10 13 6 6 10 10 13 10 16 16 16 23 19 26 32 29 26 29 26 26 26 26 23 26 23 23
0 0 0 0 0 0 0 0 0 0 0 0 0 0 3 10 6 6 13 10 3 3 3 10 10 13 13 10 10 13 19 23 32 29 32 35 26 26 29 23 19 23 23 19
0 0 0 0 0 0 0 0 0 0 0 0 0 0 10 10 3 10 10 3 6 6 3 10 10 13 13 10 10 10 10 23 26 32 35 32 29 29 19 16 19 23 23 23
0 0 0 0 0 0 0 0 0 0 0 0 0 0 10 6 6 6 6 10 10 6 6 6 10 13 13 13 10 6 16 16 16 26 26 26 26 26 19 19 19 19 23 23
0 0 0 0 0 0 0 0 0 0 0 0 0 3 6 6 3 3 3 6 6 6 13 13 13 13 16 16 16 16 19 16 13 23 26 26 26 26 19 19 19 19 19 19
0 0 0 0 0 0 0 0 0 0 0 0 3 3 10 3 6 6 6 6 6 10 13 13 13 13 13 16 13 16 19 16 16 16 26 23 19 19 16 16 19 19 19 19
0 0 0 0 0 0 0 3 3 3 3 0 0 6 3 3 6 10 6 10 10 6 16 16 19 23 23 16 13 13 13 13 13 10 16 13 16 19 19 16 16 13 16 13
0 0 0 0 0 0 3 3 3 3 3 3 3 6 3 3 3 3 3 6 10 13 16 19 19 19 16 19 13 16 16 13 10 10 16 13 10 16 16 10 10 10 13 10
0 0 0 0 0 0 3 10 6 6 6 6 6 3 3 3 3 6 6 6 10 13 16 19 16 16 16 16 13 13 10 10 10 10 10 10 6 6 6 6 6 10 10 10
0 0 0 0 0 0 0 0 3 0 6 6 6 10 10 10 13 6 3 6 10 13 23 19 19 13 13 13 13 10 10 10 10 10 10 10 6 6 3 3 6 10 10 10
0 0 0 0 0 0 3 0 0 0 0 10 10 10 13 13 13 6 6 10 10 13 13 10 13 6 10 6 10 6 10 10 10 10 13 10 3 3 3 3 3 10 10 6
0 0 0 3 0 0 0 0 3 3 3 6 10 13 19 13 16 10 10 6 6 13 10 10 6 6 6 6 10 6 6 3 6 6 10 6 3 3 3 6 6 6 10 10
0 0 0 0 0 0 0 3 3 3 3 6 10 13 13 10 13 10 10 6 10 10 10 6 6 6 3 3 3 6 10 3 3 3 6 6 6 3 3 0 0 0 0 3
Height
5932 5934 5934 5934 5934 5934 5935 5934 5934 5933 5932 5932 5931 5930 5929 5927 5925 5924 5923 5921 5920 5918 5916 5914 5913 5912 5912 5910 5909 5908 5907 5907 5906 5905 5904 5903 5902 5901 5900 5899 5897 5895 5894 5892
5931 5932 5933 5933 5933 5933 5933 5934 5934 5933 5932 5931 5930 5929 5928 5926 5925 5924 5922 5921 5920 5918 5916 5915 5914 5913 5912 5910 5909 5908 5907 5906 5905 5904 5903 5902 5901 5900 5899 5897 5895 5893 5892 5890
5929 5931 5932 5932 5932 5933 5933 5933 5933 5933 5932 5930 5929 5929 5927 5925 5924 5923 5922 5920 5919 5918 5917 5916 5914 5913 5912 5910 5909 5908 5907 5906 5905 5903 5902 5901 5900 5899 5897 5896 5894 5892 5890 5888
5927 5929 5930 5930 5931 5931 5932 5932 5932 5931 5930 5929 5928 5926 5926 5924 5923 5921 5921 5919 5918 5918 5917 5916 5914 5913 5912 5911 5909 5908 5907 5905 5903 5902 5901 5900 5899 5897 5896 5894 5892 5890 5888 5886
5925 5927 5927 5928 5929 5929 5930 5930 5930 5929 5928 5927 5927 5926 5926 5923 5921 5919 5919 5918 5917 5917 5916 5915 5914 5912 5911 5910 5908 5907 5905 5904 5902 5901 5899 5898 5897 5896 5894 5892 5891 5888 5886 5884
5923 5924 5925 5926 5927 5928 5928 5928 5928 5927 5927 5926 5925 5924 5923 5921 5919 5917 5917 5917 5915 5915 5915 5914 5913 5911 5910 5908 5907 5905 5904 5902 5900 5899 5898 5896 5895 5893 5892 5890 5888 5886 5884 5882
5920 5921 5922 5923 5924 5925 5926 5926 5926 5925 5924 5924 5923 5921 5921 5919 5918 5916 5915 5914 5913 5913 5913 5912 5910 5909 5908 5906 5905 5904 5902 5901 5899 5897 5896 5894 5893 5891 5890 5888 5886 5884 5882 5880
5916 5918 5920 5920 5921 5922 5922 5923 5923 5923 5922 5921 5920 5919 5919 5916 5915 5914 5912 5912 5911 5910 5910 5910 5908 5907 5906 5904 5902 5902 5901 5899 5897 5895 5893 5892 5890 5889 5887 5885 5883 5881 5879 5877
5912 5915 5916 5917 5918 5919 5919 5919 5920 5919 5918 5917 5916 5916 5915 5914 5913 5911 5909 5909 5909 5908 5908 5907 5905 5904 5903 5901 5900 5899 5897 5896 5893 5892 5890 5888 5887 5885 5883 5882 5880 5878 5876 5874
5908 5910 5912 5914 5915 5915 5916 5916 5916 5915 5914 5913 5912 5912 5912 5911 5910 5908 5906 5906 5906 5905 5904 5903 5901 5900 5899 5897 5897 5896 5894 5892 5890 5888 5886 5885 5883 5881 5879 5878 5876 5874 5872 5869
5903 5905 5908 5909 5910 5911 5912 5912 5911 5911 5910 5909 5908 5910 5909 5908 5907 5905 5904 5903 5902 5901 5900 5899 5898 5896 5895 5894 5893 5892 5890 5888 5886 5884 5882 5881 5879 5877 5875 5873 5871 5869 5867 5865
5898 5900 5902 5904 5905 5906 5906 5906 5907 5907 5907 5906 5904 5907 5904 5903 5903 5902 5900 5900 5898 5897 5896 5895 5893 5892 5891 5890 5889 5887 5886 5884 5882 5880 5878 5876 5874 5872 5870 5868 5866 5864 5861 5859
5894 5895 5897 5899 5902 5901 5901 5901 5901 5901 5901 5901 5900 5902 5899 5898 5897 5897 5896 5896 5895 5894 5892 5891 5889 5887 5886 5886 5884 5883 5881 5879 5877 5876 5874 5872 5870 5868 5865 5863 5861 5858 5856 5853
5889 5890 5891 5893 5894 5894 5895 5896 5896 5896 5895 5895 5895 5895 5894 5893 5892 5892 5892 5891 5891 5889 5887 5886 5885 5884 5882 5881 5880 5878 5877 5874 5872 5870 5868 5866 5864 5862 5860 5857 5855 5852 5849 5847
5883 5884 5885 5886 5888 5888 5889 5890 5890 5890 5890 5889 5889 5889 5888 5888 5887 5887 5886 5886 5886 5884 5882 5881 5880 5879 5878 5876 5874 5873 5871 5869 5867 5864 5862 5860 5858 5855 5853 5851 5848 5845 5843 5840
5877 5878 5879 5881 5881 5882 5883 5884 5884 5884 5884 5883 5883 5883 5883 5883 5881 5881 5881 5881 5880 5878 5877 5876 5875 5873 5872 5870 5868 5867 5865 5862 5860 5858 5855 5853 5850 5848 5845 5843 5841 5838 5835 5833
5871 5872 5873 5874 5875 5875 5877 5877 5877 5877 5877 5877 5877 5877 5876 5876 5875 5875 5875 5875 5873 5873 5871 5870 5869 5867 5865 5863 5861 5860 5857 5855 5853 5850 5848 5845 5843 5840 5837 5835 5833 5830 5827 5825
5864 5865 5866 5866 5868 5869 5873 5871 5870 5870 5870 5870 5870 5870 5870 5869 5869 5869 5868 5867 5866 5865 5864 5862 5861 5859 5858 5856 5854 5852 5849 5847 5845 5842 5840 5837 5835 5832 5829 5827 5824 5822 5819 5817
5857 5858 5858 5859 5860 5861 5863 5864 5863 5863 5862 5863 5863 5863 5863 5862 5862 5861 5860 5859 5858 5857 5856 5854 5852 5851 5850 5848 5846 5844 5842 5839 5837 5834 5831 5828 5826 5823 5820 5818 5816 5813 5810 5808
5850 5851 5851 5851 5852 5853 5857 5856 5855 5856 5854 5855 5855 5856 5855 5855 5854 5854 5853 5852 5850 5849 5847 5845 5844 5843 5841 5839 5838 5836 5833 5831 5829 5826 5823 5820 5817 5814 5811 5809 5806 5803 5801 5799
5843 5843 5843 5843 5843 5845 5848 5848 5848 5849 5848 5847 5847 5847 5847 5847 5847 5846 5844 5843 5842 5839 5838 5836 5836 5835 5833 5831 5830 5827 5825 5823 5820 5817 5815 5812 5808 5805 5803 5800 5798 5794 5791 5789
5835 5835 5836 5836 5836 5839 5839 5839 5840 5839 5839 5838 5838 5838 5838 5838 5837 5836 5835 5834 5832 5831 5830 5829 5828 5826 5825 5823 5821 5819 5816 5814 5811 5809 5806 5803 5800 5798 5795 5792 5789 5786 5783 5780
5827 5828 5828 5829 5830 5829 5830 5830 5831 5830 5830 5830 5830 5830 5829 5829 5828 5827 5826 5826 5824 5823 5822 5821 5819 5817 5815 5814 5812 5810 5808 5805 5802 5800 5797 5794 5792 5789 5786 5783 5780 5777 5774 5771
5819 5819 5820 5820 5820 5820 5821 5821 5822 5822 5822 5821 5821 5820 5820 5819 5819 5818 5817 5816 5815 5814 5813 5812 5810 5808 5806 5804 5802 5800 5798 5795 5793 5791 5788 5785 5782 5780 5777 5774 5771 5768 5765 5762
5812 5811 5811 5811 5811 5812 5812 5813 5813 5813 5813 5813 5812 5811 5810 5809 5809 5808 5807 5807 5805 5804 5803 5801 5800 5798 5796 5794 5792 5790 5787 5785 5783 5781 5779 5776 5773 5770 5768 5765 5762 5759 5756 5753
5803 5803 5803 5803 5803 5804 5804 5804 5805 5805 5804 5803 5803 5802 5801 5800 5799 5798 5797 5796 5795 5794 5792 5791 5789 5788 5786 5784 5783 5780 5778 5775 5773 5771 5769 5766 5764 5761 5758 5755 5752 5749 5747 5743
Wind_Speed
9 7 6 4 3 3 1 3 4 6 6 8 8 10 12 12 13 12 12 11 11 12 11 10 9 8 7 8 7 7 5 5 6 7 7 7 7 7 7 8 8 8 8 9
10 9 7 6 4 3 2 1 2 5 8 8 9 10 11 11 10 10 11 11 10 11 10 10 9 9 8 8 8 7 6 6 6 7 7 7 7 8 8 9 10 10 9 10
10 10 9 7 6 4 2 1 2 5 8 9 10 11 11 11 9 8 10 11 10 11 10 9 9 10 9 8 8 8 7 8 7 7 7 7 7 8 9 10 11 12 11 12
11 10 10 8 6 5 4 4 5 6 8 9 10 13 11 11 8 8 9 9 10 10 10 10 10 11 9 8 8 8 8 9 8 7 7 7 8 9 9 10 11 12 12 12
12 11 11 9 8 7 5 5 6 7 8 9 10 13 12 11 9 8 9 8 8 9 10 10 11 11 9 8 8 8 10 10 9 8 8 8 9 9 10 11 11 12 12 12
12 11 10 8 8 8 8 7 7 8 9 9 10 12 12 11 9 9 9 8 9 9 9 10 10 11 9 9 9 10 10 10 8 8 9 9 9 10 10 11 11 12 12 12
13 12 10 9 10 9 10 10 10 10 10 10 11 12 13 10 9 9 8 8 8 9 9 11 11 11 10 10 11 10 10 10 11 10 9 10 10 11 11 11 12 12 12 12
14 13 12 11 11 11 11 12 12 13 13 12 11 13 12 11 9 8 9 9 9 10 10 12 13 12 11 11 12 11 12 13 12 11 11 11 12 12 12 13 13 13 13 13
15 14 14 14 13 14 13 13 13 15 16 16 16 14 14 12 11 10 10 10 10 11 12 13 14 13 12 12 13 13 14 14 13 13 13 13 13 14 14 14 14 14 15 15
17 16 16 16 15 15 15 14 14 16 17 17 17 16 13 12 11 11 11 12 12 12 12 14 14 13 12 12 14 14 14 14 14 15 15 14 14 14 14 15 15 16 16 17
18 18 17 18 18 18 18 18 19 19 18 17 18 17 15 14 14 14 13 13 13 13 14 14 15 14 13 14 14 16 16 15 15 16 16 16 16 16 16 17 17 18 18 19
20 20 20 20 20 20 20 20 21 21 21 20 20 19 17 17 17 17 16 16 16 16 16 16 15 16 17 16 16 16 17 18 18 18 18 19 19 19 19 19 19 20 20 20
21 21 21 21 22 22 23 22 22 22 22 21 21 20 19 20 19 19 19 19 19 19 19 18 17 17 17 18 18 18 19 19 19 20 20 21 21 21 21 22 22 22 22 22
23 23 23 22 22 23 24 23 22 22 23 22 22 23 22 22 22 22 23 22 21 21 20 19 19 19 19 20 20 20 21 22 23 23 23 23 23 24 23 24 24 24 25 25
24 25 25 25 24 24 24 22 22 23 23 24 24 24 23 24 24 24 24 24 23 22 22 21 21 21 21 22 23 22 23 24 24 25 25 25 26 26 26 26 27 26 26 26
26 26 26 26 26 26 25 24 24 24 24 26 27 26 24 26 27 27 27 26 26 26 25 24 24 24 25 25 25 25 24 25 26 26 26 27 28 28 28 28 28 28 28 27
28 27 27 27 28 27 26 25 26 25 25 25 27 27 26 27 28 28 28 28 27 28 28 28 27 26 26 26 26 26 26 27 28 28 28 28 29 29 29 29 29 29 29 29
29 28 29 28 28 28 26 26 27 27 27 28 27 27 27 27 28 29 30 29 29 29 29 29 29 29 28 27 27 28 29 29 28 28 29 29 29 30 30 30 30 30 31 31
30 28 29 29 29 29 28 27 28 29 29 29 28 29 29 29 30 30 30 30 31 31 31 30 29 29 28 27 28 29 29 29 29 30 30 30 30 31 31 32 31 31 31 31
28 29 29 29 28 29 28 28 29 30 31 31 31 31 32 32 32 32 32 33 32 32 32 31 30 29 29 29 29 29 29 29 29 29 30 30 31 32 32 33 33 33 32 31
27 27 28 28 29 29 28 28 29 31 31 31 31 32 32 32 31 32 33 33 32 31 31 30 30 30 29 30 30 30 30 30 30 30 30 31 32 32 32 32 33 32 32 31
27 27 27 28 29 29 28 29 29 30 31 32 32 31 32 32 32 33 33 34 33 33 30 30 30 31 30 30 30 30 31 31 30 30 31 31 31 32 32 33 33 32 32 32
28 28 28 28 29 30 30 30 30 31 32 33 33 33 32 32 33 33 33 32 32 32 30 31 31 31 31 32 31 31 31 32 32 31 32 32 32 32 32 32 32 32 32 32
28 28 29 29 30 31 31 31 31 31 32 33 33 33 33 34 34 34 34 33 33 33 33 32 32 32 32 33 33 33 33 33 32 32 32 32 32 32 32 32 32 32 31 31
29 29 29 31 32 32 32 32 31 30 31 31 31 32 32 33 34 34 35 35 34 32 33 33 33 33 33 34 34 34 35 34 33 32 32 32 33 32 32 32 32 32 31 31
30 31 32 33 33 33 33 32 31 30 30 30 31 32 32 33 34 35 35 36 35 34 34 34 33 34 34 34 34 35 35 34 33 33 32 33 33 33 33 33 33 33 32 32
Wind_Direction
173 172 167 161 132 111 101 69 27 1 349 346 353 355 358 3 10 13 15 17 17 13 16 21 21 17 15 10 11 7 359 357 2 357 352 348 345 348 347 345 339 335 330 325
181 183 185 174 153 141 141 134 357 334 333 327 327 341 346 353 360 5 14 15 12 8 15 18 18 16 10 5 8 8 7 0 350 342 339 341 340 341 339 336 335 332 328 326
196 198 198 192 181 172 199 202 333 328 319 313 311 327 338 344 345 348 359 7 7 6 7 11 13 5 3 5 4 4 357 349 336 328 327 329 331 334 333 334 334 332 330 329
207 205 207 205 196 198 238 257 290 299 300 303 305 319 331 331 324 335 348 352 357 359 360 357 1 358 357 355 353 349 347 344 338 329 323 321 322 323 324 327 329 329 326 326
209 215 215 217 210 212 227 254 294 293 289 298 305 311 322 327 315 326 334 340 348 351 354 350 346 346 344 340 336 334 335 333 333 333 327 321 317 318 319 323 325 326 323 319
210 214 217 223 224 229 237 255 277 289 284 289 300 305 312 315 319 322 320 323 331 332 341 341 338 338 335 331 328 325 328 329 332 331 327 322 319 318 319 320 322 324 326 325
215 215 217 223 230 232 246 260 265 271 285 292 301 306 313 308 314 316 318 326 329 327 326 327 328 330 330 328 325 323 324 325 324 321 322 318 316 315 317 319 322 325 326 326
221 215 218 223 233 240 246 255 265 273 283 288 297 307 312 306 310 310 318 324 325 322 317 318 319 324 327 324 320 319 317 318 316 316 315 311 311 310 311 314 316 318 320 321
226 223 221 224 227 238 244 252 260 269 274 280 290 298 303 304 305 307 316 319 319 318 310 310 312 316 318 316 316 315 315 314 310 312 311 307 306 306 308 310 312 314 316 316
233 232 226 229 231 238 246 251 252 262 273 276 282 288 300 304 307 306 308 310 312 308 304 306 306 304 306 311 311 310 311 311 305 305 307 306 304 303 303 304 306 309 311 311
241 240 234 232 234 238 241 244 249 259 264 274 281 282 287 294 297 295 297 299 304 302 300 302 302 297 301 304 304 307 309 305 304 304 304 303 304 303 304 304 304 304 305 306
245 247 242 236 238 242 242 244 249 255 259 267 273 278 280 285 288 291 293 296 300 301 301 302 304 300 301 301 302 305 306 303 304 304 305 304 306 307 305 305 304 303 302 302
245 248 247 242 241 242 241 244 251 257 261 264 266 272 276 281 286 291 294 296 294 297 302 304 305 303 300 300 301 302 302 301 301 301 301 301 302 303 303 303 303 303 301 299
247 250 252 250 248 244 242 244 249 254 260 264 265 270 271 275 281 287 289 292 294 291 292 297 301 302 300 298 299 300 300 300 300 299 299 299 299 299 298 299 300 299 298 297
246 248 251 253 252 249 246 246 246 250 255 263 267 269 270 272 278 281 285 289 290 289 289 292 296 297 296 296 296 297 297 296 298 298 297 297 296 294 294 296 296 296 296 296
249 251 251 252 252 251 249 247 248 251 255 260 264 266 267 271 276 279 283 288 290 290 290 293 294 294 294 294 293 294 293 294 295 295 295 294 292 292 293 294 293 293 294 294
251 253 253 253 251 253 250 247 249 252 256 263 265 268 268 270 272 277 282 287 288 289 288 289 289 290 290 292 292 291 291 292 292 292 292 291 291 291 291 291 292 292 292 291
253 255 256 255 253 253 253 252 251 254 257 261 264 268 271 271 273 275 279 282 284 285 287 289 288 289 290 291 291 291 291 292 292 291 290 290 290 290 289 289 289 290 289 289
254 255 257 257 256 256 255 256 257 258 259 260 262 266 270 271 273 275 278 281 284 286 287 286 285 287 288 288 291 291 290 291 291 290 289 290 292 291 289 287 288 287 288 287
253 255 258 258 258 258 258 257 257 260 261 263 264 267 269 272 274 276 277 280 283 284 286 287 284 286 286 289 291 292 291 291 291 290 290 291 292 292 292 289 287 287 287 288
254 256 260 261 261 261 260 260 259 260 263 264 266 269 271 272 275 277 278 279 281 283 284 285 285 285 287 288 290 291 291 291 290 289 289 290 292 292 293 292 292 291 290 290
256 256 258 261 262 262 262 261 261 263 265 267 270 271 272 274 275 276 278 279 280 282 283 285 285 285 286 288 288 289 290 290 290 290 290 290 291 292 293 293 293 293 292 291
256 258 259 260 263 265 264 264 264 265 267 270 270 271 273 274 275 275 278 279 281 281 282 283 284 285 286 287 286 288 289 290 290 290 291 291 292 293 294 294 294 294 294 293
254 257 259 262 264 265 266 266 266 267 270 271 272 272 272 272 273 274 277 278 279 279 279 281 283 284 286 286 287 288 289 290 289 290 290 291 292 293 293 294 293 292 293 293
254 258 260 264 266 266 267 268 269 270 270 271 272 273 275 275 275 275 277 279 280 280 280 281 282 283 283 284 286 287 288 289 289 288 289 290 291 292 292 293 293 293 293 293
257 258 261 264 267 267 267 268 270 272 273 273 273 273 274 276 275 277 280 280 281 283 283 283 283 282 282 283 283 285 287 287 287 288 288 289 290 290 291 291 292 292 292 293